North Springfield, VT

10:49 AM EST on February 08, 2016 (GMT -0500)
Hartness State

Weather History for KVSF - December, 2012

Change the Weather History Date:

Sunday, December 30, 2012

  Actual Average Record
Temperature  
Mean Temperature 20 °F 21 °F  
Max Temperature 24 °F 31 °F 45 °F (1999)
Min Temperature 15 °F 12 °F 3 °F (1998)
Degree Days  
Heating Degree Days 45 44  
Month to date heating degree days 1027 1176  
Since 1 July heating degree days 2364 2819  
Cooling Degree Days 0 0  
Month to date cooling degree days 0  
Year to date cooling degree days 345  
Moisture  
Dew Point 11 °F    
Average Humidity 71    
Maximum Humidity 88    
Minimum Humidity 54    
Precipitation  
Precipitation 0.01 in 0.09 in 0.12 in (2006)
Month to date precipitation 4.18 3.18  
Year to date precipitation 34.68 43.76  
Sea Level Pressure  
Sea Level Pressure 29.75 in    
Wind  
Wind Speed 10 mph (WNW)    
Max Wind Speed 23 mph    
Max Gust Speed 32 mph    
Visibility 8 miles    
Events Snow    
T = Trace of Precipitation, MM = Missing Value Source: NWS Daily Summary

Daily Weather History Graph

Daily Weather History Graph

Search for Another Location

Airport or City:

Trip Planner

Search our weather history database for the weather conditions in past years. The results will help you decide how hot, cold, wet, or windy it might be!

Date:

Astronomy

Dec. 30, 2012 Rise Set
Actual Time 7:22 AM EST 4:23 PM EST
Civil Twilight 6:49 AM EST 4:56 PM EST
Nautical Twilight 6:13 AM EST 5:32 PM EST
Astronomical Twilight 5:39 AM EST 6:06 PM EST
Moon 6:56 PM EST (12/30) 8:25 AM EST (12/30)
Length of Visible Light 10h 06m
Length of Day
9h 01m
Waning Gibbous, 95% of the Moon is Illuminated
Dec 30
Waning Gibbous
Jan 4
Last Quarter
Jan 11
New
Jan 18
First Quarter
Jan 26
Full

Hourly Weather History & Observations

Time (EST) Temp. Windchill Dew Point Humidity Pressure Visibility Wind Dir Wind Speed Gust Speed Precip Events Conditions
12:01 AM 23.0 °F - 19.4 °F 86% 29.53 in 1.5 mi Calm Calm - 0.00 in Snow Light Snow
12:34 AM 23.0 °F - 19.4 °F 86% 29.52 in 2.0 mi Calm Calm - 0.00 in Snow Light Snow
12:41 AM 23.0 °F - 21.2 °F 93% 29.52 in 2.5 mi Calm Calm - 0.00 in Snow Light Snow
12:54 AM 23.0 °F - 19.9 °F 88% 29.55 in 2.5 mi Calm Calm - 0.00 in Snow Light Snow
1:03 AM 23.0 °F - 19.4 °F 86% 29.52 in 3.0 mi Calm Calm - 0.00 in Snow Light Snow
1:15 AM 23.0 °F - 21.2 °F 93% 29.52 in 2.0 mi Calm Calm - 0.01 in Snow Light Snow
1:40 AM 24.8 °F 16.9 °F 19.4 °F 80% 29.52 in 3.0 mi NW 6.9 mph - 0.01 in Snow Light Snow
1:54 AM 24.1 °F 17.0 °F 17.1 °F 75% 29.56 in 4.0 mi NNW 5.8 mph - 0.01 in Snow Light Snow
2:54 AM 21.0 °F 16.2 °F 14.0 °F 74% 29.57 in 10.0 mi SSE 3.5 mph - 0.00 in   Overcast
3:54 AM 19.9 °F 8.6 °F 12.0 °F 71% 29.57 in 10.0 mi WNW 10.4 mph 17.3 mph N/A   Mostly Cloudy
4:54 AM 19.9 °F 12.1 °F 10.9 °F 68% 29.60 in 10.0 mi Variable 5.8 mph 17.3 mph N/A   Partly Cloudy
5:54 AM 19.0 °F 7.5 °F 9.0 °F 65% 29.65 in 10.0 mi NW 10.4 mph 18.4 mph 0.00 in   Scattered Clouds
6:54 AM 19.9 °F 10.1 °F 9.0 °F 62% 29.69 in 10.0 mi WNW 8.1 mph - N/A   Overcast
7:54 AM 19.0 °F 13.9 °F 9.0 °F 65% 29.72 in 10.0 mi Variable 3.5 mph - N/A   Overcast
8:54 AM 19.9 °F 10.1 °F 9.0 °F 62% 29.75 in 10.0 mi WNW 8.1 mph 21.9 mph N/A   Overcast
9:54 AM 19.9 °F 11.1 °F 9.0 °F 62% 29.78 in 10.0 mi West 6.9 mph 17.3 mph N/A   Overcast
10:54 AM 21.0 °F 11.4 °F 9.0 °F 60% 29.78 in 10.0 mi NW 8.1 mph - N/A   Overcast
11:54 AM 21.0 °F 11.4 °F 10.9 °F 65% 29.78 in 6.0 mi WNW 8.1 mph - 0.00 in Snow Light Snow
12:29 PM 21.2 °F 10.1 °F 10.4 °F 63% 29.74 in 9.0 mi WNW 10.4 mph 27.6 mph 0.00 in   Scattered Clouds
12:54 PM 23.0 °F 10.6 °F 10.0 °F 58% 29.77 in 4.0 mi NW 13.8 mph 32.2 mph 0.00 in Snow Light Snow
1:54 PM 23.0 °F 11.7 °F 9.0 °F 55% 29.79 in 10.0 mi NW 11.5 mph 18.4 mph 0.00 in   Clear
2:54 PM 23.0 °F 10.6 °F 9.0 °F 55% 29.82 in 6.0 mi NW 13.8 mph 29.9 mph N/A   Haze
3:54 PM 21.9 °F 9.8 °F 9.0 °F 58% 29.86 in 10.0 mi NW 12.7 mph 20.7 mph N/A   Clear
4:54 PM 19.9 °F 6.7 °F 8.1 °F 60% 29.90 in 10.0 mi WNW 13.8 mph 21.9 mph N/A   Clear
5:54 PM 19.0 °F 5.6 °F 6.1 °F 57% 29.95 in 10.0 mi WNW 13.8 mph 21.9 mph 0.00 in   Clear
6:54 PM 17.1 °F 0.6 °F 3.9 °F 56% 29.99 in 8.0 mi WNW 19.6 mph 28.8 mph 0.00 in   Clear
7:54 PM 16.0 °F 2.9 °F 3.0 °F 57% 30.02 in 10.0 mi WNW 11.5 mph 24.2 mph N/A   Clear
8:54 PM 15.1 °F 1.8 °F 3.0 °F 59% 30.03 in 10.0 mi WNW 11.5 mph 19.6 mph N/A   Clear
9:54 PM 15.1 °F 2.5 °F 3.0 °F 59% 30.04 in 10.0 mi WNW 10.4 mph 18.4 mph N/A   Clear
10:54 PM 16.0 °F 2.9 °F 3.0 °F 57% 30.07 in 10.0 mi WNW 11.5 mph 26.5 mph N/A   Clear
11:54 PM 16.0 °F 2.3 °F 3.9 °F 59% 30.06 in 10.0 mi WNW 12.7 mph 20.7 mph N/A   Clear